Tracking 31027 objects as of 19-Jul-2025
HD Live streaming from Space Station
objects crossing your sky now

RADUGA 4

Track RADUGA 4 now!
RADUGA 4 is classified as:


NORAD ID: 10987
Int'l Code: 1978-073A
Perigee: 35,731.1 km
Apogee: 35,812.4 km
Inclination: 5.6 °
Period: 1,435.0 minutes
Semi major axis: 42142 km
RCS: 1 m2 (large)
Launch date: July 18, 1978
Source: Commonwealth of Independent States (former USSR) (CIS)
Launch site: TYURATAM MISSILE AND SPACE COMPLEX (TTMTR)
Your satellite tracking list
FENGYUN 1C DEB
Track 1 satellite(s)




NASA's NSSDC Master Catalog

Two Line Element Set (TLE):
1 10987U 78073A   25199.14444698 -.00000144  00000-0  00000-0 0  9996
2 10987   5.6368 282.6153 0009642  24.6235 121.0725  1.00350370116257
Source of the keplerian elements: AFSPC